Showing default

KINEIS-4B, 63304

Orbit data source: Space-Track

KINEIS-4B, 63304 is a French payload satellite in SSO that was launched on Tue, 18 Mar 2025 UTC via an ELECTRON launch vehicle from the Rocket Lab Launch Complex (RLLC). Payload-class satellites include a variety of spacecraft equipped with specific instruments for various scientific and technological missions. These include communications satellites like Starlink; space stations such as the ISS; scientific satellites like the Hubble; Earth observation satellites from companies like Planet Labs, Umbra, and HawkEye 360; GPS; miniature CubeSats for education and research; and military/defense satellites.

Loading next visibility...
Identifier
63304, 2025-056E
Orbit
SSO
Last TLE update
6 hours ago
Origin
Manufacturer
KINEIS
Mission
Operational Commercial Communications
Bus & Motor
CUBESAT 16U, Unknown motor
Mass
28 kg wet, 28 kg dry
Launch date (UTC)
2025-03-18 (3 months ago)
Launch vehicle
ELECTRON
Launch site
Rocket Lab Launch Complex (RLLC)
Object type
Payload
Rocket body
Debris
Shape & HBR
Box + 2 Pan + 1 Ant, 1.6 m
Radar Cross Section
0.229 m², Medium (>0.1 m² and < 1m²)

Expand to show TLE details & history

TLE from 6 hours ago
0 KINEIS-4B
1 63304U 25056E   25182.12612956  .00001389  00000-0  22826-3 0  9998
2 63304  97.9841 307.6807 0001681 340.6575  19.4568 14.72163520 15463
Epoch: 2025-07-01T03:01Z
TLE epoch observation values (Epoch: 2025-07-01T03:01:37.593Z)
Latitude
-0.00009°
Longitude
-17.15199°
Altitude
656.063 km
Speed
7.53 km/s
True Right ascension
20h 30m 43s
True Declination
0° 00' 00"
Sunlit
Object was in full shadow at epoch
Visualization orbit readout
Latitude
-33.74192°
Longitude
-11.54462°
Altitude
665.772 km
Speed
7.524 km/s
Apparent Right ascension
20h 08m 07s
Apparent Declination
-82° 56' 06"
Sunlit
Object is in full shadow
Visualization observer readout
Local Sidereal Time
21:02:10
Azimuth
181.964° SSW
Elevation
-33.03°
Doppler factor
1
Orbital elements
Apogee altitude
652.406 km
Perigee altitude
650.043 km
Semi-major axis
7,029.362 km
Eccentricity
0.00017
Inclination
97.9841°
RAAN
307.6807°
Arg. of periapsis
340.6575°
True anomaly
Unknown
Mean anomaly
19.4568°
Eccentric anomaly
Unknown
Mean motion
3.68273 °/min
Orbital period
97.75 mins
BSTAR
0.00022826
Loading maneuver chart data...
Loading SW <> Apogee altitude chart data...
Loading historical data...
Loading historical data...
Loading historical data...
Loading historical data...
Loading historical data...
Loading historical data...
Loading historical data...

KINEIS-4B Visibility forecast

Observer location: undefined°, undefined°

Span
Click to sort rows by Start time (UTC) header in descending order
Start Az.
Max El. time (UTC)
Max El. Az.
Max El.
End time (UTC)
End Az.
7 mins2025-07-01 21:32:53.468Z1.105° NNE2025-07-01 21:35:53.468Z290.996° WNW41.125°2025-07-01 21:39:53.468Z207.48° SW
7 mins2025-07-02 08:30:53.468Z173.95° S2025-07-02 08:33:53.468Z217.798° SW43.294°2025-07-02 08:37:53.468Z342.581° N
|